Lid_Strength_Index
12 12 12 12 12 12 14 13 16 13 14 12 10 10 9 8 8 9 9 10 10 11 12 13 14 15 15 15 16 16 16 16 16 16 16 16 16 16 16 16 15 15 15 14
15 12 12 14 12 12 12 12 12 12 12 8 7 7 8 8 7 8 8 9 9 10 11 12 14 14 15 15 16 16 16 17 16 16 16 16 16 16 15 16 15 15 16 16
17 13 14 16 13 12 11 11 11 14 11 8 8 8 7 7 7 7 7 8 8 9 10 11 13 14 15 16 16 16 16 17 16 16 16 16 16 16 16 17 16 16 16 16
16 16 20 12 10 9 11 10 9 9 8 8 7 7 6 6 7 7 6 6 7 8 9 10 13 14 15 15 16 16 16 16 16 16 17 17 16 16 17 17 17 17 17 17
17 17 14 12 11 11 12 12 8 9 8 8 7 7 8 7 6 6 6 5 6 7 9 12 14 15 16 16 16 16 17 17 16 17 17 17 17 17 17 17 17 17 17 17
18 18 20 12 9 8 9 15 9 8 8 8 7 11 9 6 7 7 6 6 7 10 14 15 16 16 16 17 17 17 17 16 16 17 17 17 17 17 18 17 17 17 18 17
16 17 15 11 10 9 15 13 9 8 8 9 10 8 8 9 8 11 11 12 14 14 15 15 16 16 16 17 17 16 16 17 17 17 18 18 18 18 18 18 18 19 18 18
15 17 18 10 11 12 10 10 11 11 10 10 10 10 10 11 12 14 15 15 16 17 17 17 16 16 17 18 17 18 18 19 19 18 18 18 19 18 19 19 19 20 21 20
14 14 10 10 10 10 10 9 10 11 10 10 11 11 11 12 14 15 16 17 17 17 18 17 17 16 17 18 18 19 19 20 20 19 19 19 19 19 20 20 20 21 20 21
13 11 11 10 10 9 9 9 9 10 11 11 11 12 12 13 15 16 17 18 18 18 19 19 17 16 18 19 19 19 20 20 21 20 21 20 19 20 21 22 22 21 22 23
12 11 10 9 10 11 12 12 11 11 12 12 13 12 13 13 14 15 16 17 18 18 19 19 19 20 20 20 20 21 21 21 21 21 21 21 21 21 21 20 21 23 24 23
13 9 9 9 11 13 13 13 14 14 14 13 13 14 13 14 15 17 18 18 19 19 19 21 22 22 22 22 21 21 22 21 21 22 22 22 22 22 19 19 18 18 19 21
10 11 11 13 14 14 14 15 15 15 15 16 14 15 15 16 18 18 19 19 20 20 21 23 25 25 25 24 22 22 22 22 22 22 23 23 23 23 24 22 20 20 20 20
18 16 15 16 15 17 17 18 18 18 19 19 18 19 19 18 19 20 20 20 21 23 24 25 27 28 27 26 24 23 23 24 23 23 24 24 24 24 24 26 26 26 23 22
20 19 19 19 19 18 18 18 20 19 20 20 19 18 18 20 20 22 22 22 23 25 26 26 28 29 28 27 26 26 25 25 25 25 25 25 25 25 26 26 27 27 28 26
20 19 20 20 19 20 22 21 21 20 20 20 20 20 20 22 23 24 24 24 25 26 27 27 28 29 28 27 27 26 25 25 25 26 27 26 26 26 27 27 27 28 29 30
20 18 17 18 19 19 20 19 19 20 20 21 21 22 23 24 25 25 25 25 25 26 26 26 28 28 28 27 27 27 27 27 26 27 27 27 27 27 27 28 29 30 32 31
24 23 23 23 21 19 19 20 20 21 21 21 23 23 24 25 25 26 26 26 27 27 26 27 28 28 28 27 26 26 27 28 28 28 28 28 29 29 29 30 31 32 32 33
28 27 27 25 26 25 22 22 21 21 22 23 23 24 24 24 25 25 26 27 27 28 28 28 25 28 28 28 27 27 27 28 29 29 29 29 29 31 32 33 34 34 35 34
32 32 32 32 32 31 28 28 27 27 26 24 24 24 25 25 25 26 26 27 26 25 27 27 25 28 28 27 25 28 29 29 30 31 32 34 34 35 35 33 34 34 35 34
33 35 35 35 33 36 35 33 31 30 30 29 28 29 28 28 26 26 26 26 26 26 26 27 30 31 31 32 30 33 34 34 33 32 32 32 34 34 34 36 36 35 35 36
35 34 34 36 36 30 33 37 36 36 34 33 33 31 31 32 31 29 28 26 31 30 32 32 32 31 31 27 32 32 33 34 34 37 38 39 38 36 36 36 35 34 34 34
32 33 35 35 34 34 35 32 34 36 35 36 33 33 31 30 32 31 31 31 35 31 33 33 32 29 28 32 34 34 35 35 34 34 35 35 34 35 35 35 34 35 35 34
33 32 31 34 36 35 33 32 34 36 36 37 34 33 32 33 35 32 35 33 30 27 33 33 27 23 27 33 34 34 33 33 33 34 34 32 35 35 35 34 34 35 34 33
30 30 33 31 31 28 30 29 31 36 37 36 34 32 30 30 27 30 31 33 28 30 31 27 23 21 29 32 32 32 32 32 32 33 33 34 34 34 34 34 34 33 34 32
29 27 27 27 25 27 27 27 26 29 32 31 29 29 30 29 31 32 32 30 30 28 29 28 25 24 28 30 30 30 30 30 30 30 31 32 33 33 33 32 32 31 30 29
29 27 28 27 27 26 24 23 25 25 26 26 26 28 27 28 27 27 27 27 28 27 27 27 27 27 28 28 28 28 27 28 28 29 31 30 31 31 30 30 30 29 28 27